"Pseudo-MPEC" for P10OVOH

Created 2019 Jun 15 19:09:00 UT using Find_Orb

Click here for an explanation of pseudo-MPECs

 
 Astrometry: 
     P10OVOH  C2019 05 27#gMThBH*p#'ey)gmrBAW[9I\/Qywm#uW-=]/!-1$iQXrrKD:F!v_F51
     P10OVOH  C2019 05 27K2nV1FJhdEK75=Ev4QT`IY^`n?e4Ak4EZxD4J`K_$J_T8k.xnA]2F51
     P10OVOH  C2019 05 27!wA`U7RC]fA'Eh%^AstrometryFPxhibA]]XJ_/PKk5bwXycy'=yF51
     P10OVOH  C2019 05 29IB]Ir[#;$?\bn2a#gN-j^4jGhKdgNa$w3`TNdsduX8][/$cp[TUoF52
     P10OVOH  C2019 05 29x7#A$Q\)(oC\xaUh*uA0iFt`[(;*ZqB]l4N]xRvhal0kg63RZ3@nF52
     P10OVOH  C2019 06 02.5Rh,t%SO9'2/Ym;/5Emi5ZuoG!5;cJn+1B0dq#E*f%Q'4f)jeQ4F52
     P10OVOH  C2019 06 021/pY1_NtdvOsjmjnredacted;8NZq%`EEP0vd1bt[u_tI38mgs^ZF52
     P10OVOH  C2019 06 07c,Ml@Dq\*q(5'Xylclick@M';f?:?m\l+p/7C!Xhs:LDvaKU;rOhF51
     P10OVOH  C2019 06 07yE/!/p7V,)b8S:1hgn1061K.;m.`c$e3;B?D^v67vPI=)f(_v?q!F51
     P10OVOH  C2019 06 07M2o5LKSPkfE3`Cq6Yb20e*'nJdTG)%H0kq=wSGhslUYioHh[2T?:F51
     P10OVOH  C2019 06 10j$Vka5mKeKwXD*Rj9eY?[(-phere:;j.4ft%'drSj7XhS7f7iWPTF51
     P10OVOH  C2019 06 106IirW:for3r^ujrb?wC)ovs-/;:F(Ri_\wO,AH=[5i?dZ7yhJ(]FF51
     P10OVOH  C2019 06 10UDUK9USEDl'vAg=Cexplanation^RXNqwbb#aPMCgNRf]#%90J7+F51

Station data:
(F51) Pan-STARRS 1, Haleakala  (N20.707235 W156.255910)  US/Hawaii.
   Observers N. Primak, A. Schultz, S. Watters, J. Thiel, T. Goggia. Measurer
   PS1 Science Consortium. 1.8-m Ritchey-Chrétien + CCD.
(F52) Pan-STARRS 2, Haleakala  (N20.707384 W156.255910)  US/Hawaii. 1.8-m
   Ritchey-Chrétien + CCD.

Orbital elements:  P10OVOH
   Perihelion 2020 Jul 22.359771 +/- 1.61 TT =  8:38:04 (JD 2459052.859771)
Epoch 2019 Jun 10.0 TT = JDT 2458644.5   Earth MOID: 0.7515   AutoNEOCP
M 208.75716692 +/- 0.55             (J2000 ecliptic)
n   0.37036663 +/- 0.000151         Peri.  192.38301 +/- 0.43
a   1.92035482 +/- 0.000523         Node   215.58571 +/- 0.042
e   0.0929730 +/- 0.000234          Incl.   19.89854 +/- 0.033
P   2.66/971.99d           H 19.8   G  0.15   U  6.9  
q 1.74181357 +/- 0.000303    Q 2.09889607 +/- 0.000966
From 13 observations 2019 May 27-June 10; mean residual 0".15
Residuals in arcseconds: 
190527 F51  .05+  .10-    190602 F52  .09+  .32-    190610 F51  .06-  .19+    
190527 F51  .03+  .10+    190602 F52  .01-  .49+    190610 F51  .00   .04-    
190527 F51  .13+  .02+    190607 F51  .18+  .01+    190610 F51  .05-  .10-    
190529 F52  .04+  .07-    190607 F51  .05+  .06-    
190529 F52  .33-  .04-    190607 F51  .08-  .09-    

Ephemerides (geocentric):
Date (UTC) HH   RA              Dec         delta   r     elong  mag " sig PA
---- -- -- --  -------------   -----------  ------ ------ -----  --- ---- ---
2019 06 15 19  16 12 35.336   +01 45 08.18  1.1452 2.0775 148.0 22.5 .778   9
2019 06 15 20  16 12 33.009   +01 45 26.15  1.1453 2.0774 148.0 22.5 .784   9
2019 06 15 21  16 12 30.684   +01 45 44.09  1.1455 2.0774 147.9 22.5 .791   9
2019 06 15 22  16 12 28.362   +01 46 01.99  1.1457 2.0774 147.9 22.5 .798   9
2019 06 15 23  16 12 26.042   +01 46 19.85  1.1459 2.0774 147.8 22.5 .805   9
2019 06 16 00  16 12 23.725   +01 46 37.67  1.1460 2.0773 147.8 22.5 .811   8
2019 06 16 01  16 12 21.410   +01 46 55.45  1.1462 2.0773 147.8 22.5 .818   8
2019 06 16 02  16 12 19.097   +01 47 13.19  1.1464 2.0773 147.7 22.5 .825   8
2019 06 16 03  16 12 16.787   +01 47 30.90  1.1466 2.0773 147.7 22.5 .832   8
2019 06 16 04  16 12 14.480   +01 47 48.56  1.1467 2.0773 147.7 22.5 .839   8
2019 06 16 05  16 12 12.174   +01 48 06.19  1.1469 2.0772 147.6 22.5 .846   8
2019 06 16 06  16 12 09.872   +01 48 23.78  1.1471 2.0772 147.6 22.5 .853   8
2019 06 16 07  16 12 07.571   +01 48 41.32  1.1473 2.0772 147.5 22.5 .860   8
2019 06 16 08  16 12 05.273   +01 48 58.83  1.1475 2.0772 147.5 22.5 .867   8
2019 06 16 09  16 12 02.978   +01 49 16.30  1.1476 2.0772 147.5 22.5 .874   8
2019 06 16 10  16 12 00.685   +01 49 33.74  1.1478 2.0771 147.4 22.5 .881   7
2019 06 16 11  16 11 58.394   +01 49 51.13  1.1480 2.0771 147.4 22.5 .888   7
2019 06 16 12  16 11 56.106   +01 50 08.48  1.1482 2.0771 147.3 22.5 .895   7
2019 06 16 13  16 11 53.820   +01 50 25.80  1.1484 2.0771 147.3 22.5 .903   7
2019 06 16 14  16 11 51.537   +01 50 43.07  1.1485 2.0771 147.3 22.5 .910   7
2019 06 16 15  16 11 49.256   +01 51 00.31  1.1487 2.0770 147.2 22.5 .917   7
2019 06 16 16  16 11 46.978   +01 51 17.51  1.1489 2.0770 147.2 22.5 .924   7
2019 06 16 17  16 11 44.702   +01 51 34.67  1.1491 2.0770 147.2 22.5 .932   7
2019 06 16 18  16 11 42.429   +01 51 51.79  1.1493 2.0770 147.1 22.5 .939   7
2019 06 16 19  16 11 40.158   +01 52 08.87  1.1495 2.0769 147.1 22.5 .946   7
2019 06 16 20  16 11 37.890   +01 52 25.91  1.1496 2.0769 147.0 22.5 .954   6
2019 06 16 21  16 11 35.624   +01 52 42.92  1.1498 2.0769 147.0 22.5 .961   6
2019 06 16 22  16 11 33.361   +01 52 59.88  1.1500 2.0769 147.0 22.5 .968   6
2019 06 16 23  16 11 31.100   +01 53 16.81  1.1502 2.0769 146.9 22.5 .976   6
2019 06 17 00  16 11 28.842   +01 53 33.70  1.1504 2.0768 146.9 22.5 .983   6
2019 06 17 01  16 11 26.586   +01 53 50.55  1.1506 2.0768 146.9 22.5 0.99   6
2019 06 17 02  16 11 24.333   +01 54 07.36  1.1507 2.0768 146.8 22.5 1.00   6
2019 06 17 03  16 11 22.082   +01 54 24.13  1.1509 2.0768 146.8 22.5 1.01   6
2019 06 17 04  16 11 19.834   +01 54 40.86  1.1511 2.0768 146.7 22.5 1.01   6
2019 06 17 05  16 11 17.588   +01 54 57.55  1.1513 2.0767 146.7 22.5 1.02   6
2019 06 17 06  16 11 15.345   +01 55 14.21  1.1515 2.0767 146.7 22.5 1.03   6
2019 06 17 07  16 11 13.104   +01 55 30.82  1.1517 2.0767 146.6 22.5 1.04   5
2019 06 17 08  16 11 10.866   +01 55 47.40  1.1519 2.0767 146.6 22.5 1.04   5
2019 06 17 09  16 11 08.630   +01 56 03.94  1.1520 2.0766 146.6 22.5 1.05   5
2019 06 17 10  16 11 06.397   +01 56 20.44  1.1522 2.0766 146.5 22.5 1.06   5
2019 06 17 11  16 11 04.167   +01 56 36.90  1.1524 2.0766 146.5 22.5 1.07   5
2019 06 17 12  16 11 01.939   +01 56 53.32  1.1526 2.0766 146.4 22.6 1.08   5
2019 06 17 13  16 10 59.714   +01 57 09.70  1.1528 2.0766 146.4 22.6 1.08   5
2019 06 17 14  16 10 57.491   +01 57 26.04  1.1530 2.0765 146.4 22.6 1.09   5
2019 06 17 15  16 10 55.271   +01 57 42.35  1.1532 2.0765 146.3 22.6 1.10   5
2019 06 17 16  16 10 53.053   +01 57 58.62  1.1534 2.0765 146.3 22.6 1.11   5
2019 06 17 17  16 10 50.838   +01 58 14.84  1.1536 2.0765 146.3 22.6 1.11   5
2019 06 17 18  16 10 48.625   +01 58 31.03  1.1538 2.0765 146.2 22.6 1.12   4